Location: *
(6.1770°N, 170.5260°W)
Time: 10:22:52
(UTC+00:00)

Daily predictions for brighter satellites

Satellite Brightness Start Highest point End
(mag) Time Altitude Azimuth Time Altitude Azimuth Time Altitude Azimuth
CZ-3 R/B 4.5 12:52:47 10° WNW 14:01:18 69° SW 14:15:38 10° SE
Ariane H10-3 4.0 13:21:04 10° W 14:14:25 38° E 14:16:47 10° E
Cosmos 1844 Rocket 4.0 14:43:14 34° SE 14:43:14 34° SE 14:46:36 10° SSE
BLOCK DM-SL R/B 4.2 14:42:05 56° SSE 14:42:05 56° SSE 14:46:10 10° ESE
Ariane H10+ 3.6 14:47:21 28° SE 14:47:21 28° SE 14:48:57 10° ESE
Okean O Rocket 4.3 14:52:35 12° SSE 14:52:35 12° SSE 14:52:57 10° S
COSMOS 2455 3.1 14:59:21 63° E 14:59:21 63° E 15:04:56 10° SSE
CZ-4B R/B 3.7 15:01:46 10° NNE 15:07:18 59° ESE 15:12:46 10° S
NATO 3D Rocket 4.1 15:07:53 80° W 15:08:18 86° SSW 15:14:22 10° ESE
Milstar 3 Cent rocket 4.1 15:08:22 42° NNW 15:09:19 43° NNW 15:25:04 10° NE
Cosmos 1844 3.8 15:09:43 74° E 15:09:43 74° E 15:15:06 10° SSE
USA 234 3.2 15:04:33 10° SE 15:11:07 80° NE 15:12:12 64° NNW
Cosmos 2278 Rocket 3.8 15:11:16 16° NNE 15:14:52 31° ENE 15:19:47 10° SE
CENTAUR R/B 3.9 15:23:50 33° WSW 15:23:50 33° WSW 15:30:16 10° S
Cosmos 1470 Rocket 3.8 15:20:17 10° S 15:24:16 66° SE 15:24:16 66° SE
CZ-4B R/B 4.5 15:26:11 51° ESE 15:26:11 51° ESE 15:29:43 10° S
Tiangong 1 4.2 15:29:18 10° SE 15:29:18 10° SE 15:29:22 10° SE
Palapa 6 Rocket 4.0 15:27:49 56° NW 15:29:26 79° NNE 15:35:36 10° ESE
Ariane H10 3.4 15:27:36 44° SW 15:29:26 69° SSE 15:50:57 10° E
PAYLOAD B 4.1 15:30:34 63° W 15:30:34 63° W 15:35:59 10° SSW
Sakura Rocket 3.3 15:34:42 58° SW 15:35:43 85° SSE 15:41:59 10° ENE
SEDSat Delta rocket 3.8 15:37:28 50° NW 15:39:12 83° NNE 15:45:49 10° ESE
Cosmos 2173 Rocket 3.9 15:35:48 17° N 15:40:53 82° W 15:47:15 10° S
ATLAS 5 CENTAUR R/B 1.6 15:37:30 10° SSW 15:41:58 77° ESE 15:46:26 10° NNE
BLOCK DM-SL R/B 3.3 15:46:42 16° S 15:46:47 16° SSE 15:48:36 10° SE
Cosmos 1933 4.2 15:43:57 12° NNE 15:47:31 49° E 15:51:26 10° SSE
Cosmos 1459 Rocket 3.9 15:47:17 20° NNW 15:51:27 62° W 15:57:24 10° S
Meteor 2-3 Rocket 3.7 15:50:38 10° SSW 15:56:22 64° W 16:02:05 10° N
USA 215 3.1 15:53:34 10° NNE 16:00:05 78° NW 16:06:36 10° SW
Cosmos 1707 Rocket 3.9 15:59:49 38° W 16:00:10 38° W 16:04:11 10° SSW
Meteor 2-10 Rocket 3.8 15:57:29 13° NNW 16:02:36 60° W 16:08:13 10° S
Ariane H10 2.5 16:00:45 28° W 16:03:16 80° N 16:06:12 10° E
Okean-O 3.0 15:59:37 10° NNE 16:04:00 66° ESE 16:08:23 10° S
Cosmos 2100 Rocket 4.4 16:01:44 18° NNW 16:05:54 40° W 16:11:45 10° SSW
ARIANE 5 R/B 4.1 15:43:47 20° W 16:05:56 87° S 16:10:45 10° E
SWIFT 2.2 16:04:24 29° WSW 16:06:29 83° NNW 16:10:41 10° ENE
Cosmos 1408 2.9 16:04:17 10° S 16:07:58 70° E 16:11:41 10° N
Cosmos 1933 Rocket 4.3 16:05:07 10° SW 16:08:52 29° W 16:09:31 28° WNW
Meteor 1-31 Rocket 3.8 16:09:59 27° W 16:09:59 27° W 16:12:46 10° SW
Cosmos 1603 4.1 16:07:47 10° SW 16:12:53 36° WNW 16:18:00 10° N
Molniya-1 4.4 16:12:16 11° SW 16:15:27 39° NW 16:22:28 10° NNE
ATLAS 5 CENTAUR R/B 3.9 15:50:27 22° WNW 16:16:18 67° N 16:23:17 10° E
GPS 2-04 Rocket1 4.2 16:13:53 10° SSW 16:17:45 38° SE 16:21:28 10° ENE
Shenzhou-11 Module 1.8 16:15:52 17° SW 16:18:03 68° NW 16:21:03 10° NE
Cosmos 1437 2.5 16:15:19 11° N 16:18:20 73° W 16:21:32 10° S
Cosmos 1802 Rocket 4.4 16:14:15 10° NNW 16:20:02 40° W 16:25:54 10° SSW
deb Ariane 2.8 16:20:32 19° W 16:22:27 80° S 16:25:42 10° E
Centaur Rocket 3.3 16:15:42 10° WSW 16:25:04 79° NNW 16:28:16 10° ENE
Ariane H10 3.3 16:23:29 18° W 16:25:21 61° S 16:33:46 10° E
Meteor 1-28 Rocket 3.5 16:25:25 10° SSE 16:29:12 68° ENE 16:32:55 10° N
Cosmos 1340 3.9 16:30:44 14° NW 16:33:00 22° W 16:36:00 10° SSW
Cosmos 1862 4.1 16:32:17 10° S 16:36:11 56° E 16:40:03 10° NNE
NOAA 6 4.3 16:32:27 10° N 16:37:15 43° WNW 16:42:05 10° SSW
SL-16 Debris 3.6 16:32:34 10° WSW 16:38:22 77° SSE 16:40:54 10° ENE
Lacrosse 4 Rocket 1.8 16:34:27 10° SSW 16:38:54 75° ESE 16:43:16 10° NNE
CZ-2C R/B 2.6 16:34:06 10° NNE 16:39:08 78° ESE 16:44:01 10° S
Landsat 4 3.8 16:36:10 10° SSE 16:39:52 77° ENE 16:43:34 10° N
Cosmos 2242 Rocket 4.3 16:37:48 10° NNW 16:41:41 31° W 16:45:34 10° SSW
Cosmos 1725 Rocket 4.3 16:37:15 10° NNW 16:43:03 45° W 16:48:54 10° SSW
Cosmos 1503 Rocket 4.2 16:38:41 10° N 16:43:50 78° ENE 16:49:02 10° SSE
Intelsat 5-1 Rocket 3.2 16:45:07 10° NNW 16:46:30 14° NNE 16:47:55 10° ENE
Cosmos 1862 Rocket 4.2 16:46:03 10° NNW 16:50:03 34° W 16:54:03 10° SSW
Meteor 1-26 Rocket 4.5 16:45:34 10° NNW 16:51:00 50° W 16:56:33 10° SSW
Cosmos 2297 3.7 16:46:59 10° NNW 16:52:39 71° WSW 16:58:17 10° S
PAYLOAD A 4.5 16:48:17 10° N 16:53:24 45° WNW 16:58:34 10° SSW
